Time,TemperatureF,DewpointF,PressureIn,WindDirection,WindDirectionDegrees,WindSpeedMPH,WindSpeedGustMPH,Humidity,HourlyPrecipIn,Conditions,Clouds,dailyrainin,SolarRadiationWatts/m^2,SoftwareType,DateUTC
2013-01-12 00:04:00,57.3,51.0,29.93,SE,136,0.0,-999.0,78,-99.99,,,0.00,0,weatherlink.com 1.10,2013-01-12 06:04:00,
2013-01-12 00:19:00,57.7,51.0,29.93,SE,136,0.0,-999.0,77,-99.99,,,0.00,0,weatherlink.com 1.10,2013-01-12 06:19:00,
2013-01-12 00:49:00,57.6,50.0,29.93,SE,136,0.0,-999.0,77,-99.99,,,0.00,0,weatherlink.com 1.10,2013-01-12 06:49:00,
2013-01-12 01:04:00,57.7,51.0,29.93,SE,136,0.0,-999.0,77,-99.99,,,0.00,0,weatherlink.com 1.10,2013-01-12 07:04:00,
2013-01-12 01:19:00,57.7,51.0,29.94,SE,136,0.0,-999.0,78,-99.99,,,0.00,0,weatherlink.com 1.10,2013-01-12 07:19:00,
2013-01-12 01:35:00,57.7,51.0,29.94,SE,136,0.0,-999.0,78,-99.99,,,0.00,0,weatherlink.com 1.10,2013-01-12 07:35:00,
2013-01-12 01:50:00,57.8,51.0,29.94,SE,136,0.0,-999.0,78,-99.99,,,0.00,0,weatherlink.com 1.10,2013-01-12 07:50:00,
2013-01-12 02:05:00,58.0,51.0,29.95,SE,136,0.0,-999.0,77,-99.99,,,0.00,0,weatherlink.com 1.10,2013-01-12 08:05:00,
2013-01-12 02:20:00,58.0,51.0,29.94,SE,136,4.0,-999.0,77,-99.99,,,0.00,0,weatherlink.com 1.10,2013-01-12 08:20:00,
2013-01-12 02:35:00,57.9,51.0,29.94,SE,136,2.0,-999.0,78,-99.99,,,0.00,0,weatherlink.com 1.10,2013-01-12 08:35:00,
2013-01-12 02:50:00,57.7,51.0,29.93,SE,136,0.0,-999.0,78,-99.99,,,0.00,0,weatherlink.com 1.10,2013-01-12 08:50:00,
2013-01-12 03:05:00,57.7,51.0,29.94,SSE,150,0.0,-999.0,79,-99.99,,,0.00,0,weatherlink.com 1.10,2013-01-12 09:05:00,
2013-01-12 03:35:00,57.5,51.0,29.93,SSE,151,0.0,-999.0,79,-99.99,,,0.00,0,weatherlink.com 1.10,2013-01-12 09:35:00,
2013-01-12 03:50:00,57.2,51.0,29.93,SSE,151,4.0,-999.0,80,-99.99,,,0.00,0,weatherlink.com 1.10,2013-01-12 09:50:00,
2013-01-12 04:05:00,56.9,51.0,29.93,SSE,151,0.0,-999.0,80,-99.99,,,0.00,0,weatherlink.com 1.10,2013-01-12 10:05:00,
2013-01-12 04:20:00,56.8,51.0,29.93,SSE,151,0.0,-999.0,81,-99.99,,,0.00,0,weatherlink.com 1.10,2013-01-12 10:20:00,
2013-01-12 04:35:00,57.1,51.0,29.93,SSE,151,0.0,-999.0,81,-99.99,,,0.00,0,weatherlink.com 1.10,2013-01-12 10:35:00,
2013-01-12 04:50:00,57.2,51.0,29.92,SSE,151,0.0,-999.0,80,-99.99,,,0.00,0,weatherlink.com 1.10,2013-01-12 10:50:00,
2013-01-12 05:05:00,56.2,51.0,29.92,SSE,151,0.0,-999.0,82,-99.99,,,0.00,0,weatherlink.com 1.10,2013-01-12 11:05:00,
2013-01-12 05:20:00,55.8,51.0,29.93,SSE,151,0.0,-999.0,83,-99.99,,,0.00,0,weatherlink.com 1.10,2013-01-12 11:20:00,
2013-01-12 05:35:00,55.3,50.0,29.94,SSE,151,0.0,-999.0,82,-99.99,,,0.00,0,weatherlink.com 1.10,2013-01-12 11:35:00,
2013-01-12 05:50:00,54.8,51.0,29.94,SSE,151,0.0,-999.0,86,-99.99,,,0.00,0,weatherlink.com 1.10,2013-01-12 11:50:00,
2013-01-12 06:05:00,53.4,49.0,29.94,SSE,151,0.0,-999.0,85,-99.99,,,0.00,0,weatherlink.com 1.10,2013-01-12 12:05:00,
2013-01-12 06:20:00,52.9,50.0,29.93,SSE,151,0.0,-999.0,88,-99.99,,,0.00,0,weatherlink.com 1.10,2013-01-12 12:20:00,
2013-01-12 06:35:00,52.8,49.0,29.94,SSE,151,0.0,-999.0,87,-99.99,,,0.00,0,weatherlink.com 1.10,2013-01-12 12:35:00,
2013-01-12 06:50:00,52.7,50.0,29.94,SSE,151,0.0,-999.0,90,-99.99,,,0.00,0,weatherlink.com 1.10,2013-01-12 12:50:00,
2013-01-12 07:05:00,52.5,49.0,29.95,SSE,151,0.0,-999.0,88,-99.99,,,0.00,0,weatherlink.com 1.10,2013-01-12 13:05:00,
2013-01-12 07:20:00,52.4,49.0,29.94,SSE,151,0.0,-999.0,89,-99.99,,,0.00,0,weatherlink.com 1.10,2013-01-12 13:20:00,
2013-01-12 07:35:00,52.2,49.0,29.95,SSE,151,0.0,-999.0,90,-99.99,,,0.00,9,weatherlink.com 1.10,2013-01-12 13:35:00,
2013-01-12 07:50:00,51.4,48.0,29.94,SSE,151,0.0,-999.0,87,-99.99,,,0.00,23,weatherlink.com 1.10,2013-01-12 13:50:00,
2013-01-12 08:05:00,50.6,47.0,29.95,SSE,151,0.0,-999.0,88,-99.99,,,0.00,26,weatherlink.com 1.10,2013-01-12 14:05:00,
2013-01-12 08:20:00,50.1,48.0,29.96,SSE,151,0.0,-999.0,91,-99.99,,,0.00,25,weatherlink.com 1.10,2013-01-12 14:20:00,
2013-01-12 08:35:00,50.8,49.0,29.97,SSE,151,0.0,-999.0,92,-99.99,,,0.00,39,weatherlink.com 1.10,2013-01-12 14:35:00,
2013-01-12 08:50:00,50.9,48.0,29.97,SSE,151,0.0,-999.0,90,-99.99,,,0.00,83,weatherlink.com 1.10,2013-01-12 14:50:00,
2013-01-12 09:05:00,50.3,48.0,29.96,SSE,151,0.0,-999.0,92,-99.99,,,0.00,90,weatherlink.com 1.10,2013-01-12 15:05:00,
2013-01-12 09:20:00,51.0,48.0,29.97,SSE,151,0.0,-999.0,90,-99.99,,,0.00,171,weatherlink.com 1.10,2013-01-12 15:20:00,
2013-01-12 09:35:00,52.7,51.0,29.96,SSE,151,0.0,-999.0,92,-99.99,,,0.00,274,weatherlink.com 1.10,2013-01-12 15:35:00,
2013-01-12 09:50:00,53.6,50.0,29.95,East,95,0.0,-999.0,88,-99.99,,,0.00,91,weatherlink.com 1.10,2013-01-12 15:50:00,
2013-01-12 10:05:00,55.1,52.0,29.95,East,95,2.0,-999.0,89,-99.99,,,0.00,241,weatherlink.com 1.10,2013-01-12 16:05:00,
2013-01-12 10:20:00,56.3,52.0,29.94,East,95,0.0,-999.0,86,-99.99,,,0.00,90,weatherlink.com 1.10,2013-01-12 16:20:00,
2013-01-12 10:35:00,56.6,52.0,29.94,East,95,4.0,-999.0,85,-99.99,,,0.00,53,weatherlink.com 1.10,2013-01-12 16:35:00,
2013-01-12 10:50:00,56.8,52.0,29.95,East,95,0.0,-999.0,85,-99.99,,,0.00,35,weatherlink.com 1.10,2013-01-12 16:50:00,
2013-01-12 11:05:00,56.8,53.0,29.94,East,95,0.0,-999.0,86,-99.99,,,0.00,12,weatherlink.com 1.10,2013-01-12 17:05:00,
2013-01-12 11:20:00,56.6,53.0,29.93,East,95,0.0,-999.0,87,-99.99,,,0.03,11,weatherlink.com 1.10,2013-01-12 17:20:00,
2013-01-12 11:35:00,55.8,53.0,29.95,East,95,0.0,-999.0,90,-99.99,,,0.10,7,weatherlink.com 1.10,2013-01-12 17:35:00,
2013-01-12 11:50:00,55.2,53.0,29.92,East,95,0.0,-999.0,91,-99.99,,,0.17,81,weatherlink.com 1.10,2013-01-12 17:50:00,
2013-01-12 12:08:00,55.4,54.0,29.92,East,95,0.0,-999.0,93,-99.99,,,0.17,32,weatherlink.com 1.10,2013-01-12 18:08:00,
2013-01-12 12:21:00,55.3,53.0,29.91,East,95,0.0,-999.0,93,-99.99,,,0.17,19,weatherlink.com 1.10,2013-01-12 18:21:00,
2013-01-12 12:36:00,54.5,53.0,29.89,East,95,0.0,-999.0,93,-99.99,,,0.17,39,weatherlink.com 1.10,2013-01-12 18:36:00,
2013-01-12 12:51:00,53.5,52.0,29.88,East,95,0.0,-999.0,94,-99.99,,,0.18,77,weatherlink.com 1.10,2013-01-12 18:51:00,
2013-01-12 13:06:00,53.9,53.0,29.88,East,95,0.0,-999.0,95,-99.99,,,0.18,12,weatherlink.com 1.10,2013-01-12 19:06:00,
2013-01-12 13:21:00,54.1,53.0,29.88,East,95,0.0,-999.0,95,-99.99,,,0.18,21,weatherlink.com 1.10,2013-01-12 19:21:00,
2013-01-12 13:36:00,53.9,53.0,29.86,East,82,0.0,-999.0,95,-99.99,,,0.19,25,weatherlink.com 1.10,2013-01-12 19:36:00,
2013-01-12 13:51:00,54.1,53.0,29.88,ENE,76,0.0,-999.0,96,-99.99,,,0.21,33,weatherlink.com 1.10,2013-01-12 19:51:00,
2013-01-12 14:06:00,54.0,53.0,29.86,ENE,76,3.0,-999.0,95,-99.99,,,0.24,49,weatherlink.com 1.10,2013-01-12 20:06:00,
2013-01-12 14:21:00,53.8,53.0,29.84,NNE,19,5.0,-999.0,96,-99.99,,,0.24,49,weatherlink.com 1.10,2013-01-12 20:21:00,
2013-01-12 14:36:00,53.5,52.0,29.83,North,360,6.0,-999.0,96,-99.99,,,0.25,18,weatherlink.com 1.10,2013-01-12 20:36:00,
2013-01-12 14:51:00,52.8,52.0,29.85,NNW,345,6.0,-999.0,96,-99.99,,,0.25,5,weatherlink.com 1.10,2013-01-12 20:51:00,
2013-01-12 15:06:00,51.2,50.0,29.85,NNW,331,16.0,-999.0,95,-99.99,,,0.27,0,weatherlink.com 1.10,2013-01-12 21:06:00,
2013-01-12 15:21:00,49.9,49.0,29.85,NNW,336,13.0,-999.0,95,-99.99,,,0.31,0,weatherlink.com 1.10,2013-01-12 21:21:00,
2013-01-12 15:36:00,48.3,47.0,29.84,NNW,348,9.0,-999.0,95,-99.99,,,0.37,5,weatherlink.com 1.10,2013-01-12 21:36:00,
2013-01-12 15:51:00,47.7,47.0,29.83,NNW,329,6.0,-999.0,96,-99.99,,,0.40,0,weatherlink.com 1.10,2013-01-12 21:51:00,
2013-01-12 16:06:00,47.3,46.0,29.81,NNE,13,8.0,-999.0,96,-99.99,,,0.43,0,weatherlink.com 1.10,2013-01-12 22:06:00,
2013-01-12 16:21:00,47.0,46.0,29.81,North,355,9.0,-999.0,96,-99.99,,,0.46,0,weatherlink.com 1.10,2013-01-12 22:21:00,
2013-01-12 16:36:00,46.1,45.0,29.81,North,355,4.0,-999.0,95,-99.99,,,0.49,0,weatherlink.com 1.10,2013-01-12 22:36:00,
2013-01-12 16:51:00,45.2,44.0,29.83,NNW,348,7.0,-999.0,96,-99.99,,,0.53,0,weatherlink.com 1.10,2013-01-12 22:51:00,
2013-01-12 17:06:00,44.9,44.0,29.82,NNW,339,9.0,-999.0,96,-99.99,,,0.58,0,weatherlink.com 1.10,2013-01-12 23:06:00,
2013-01-12 17:21:00,44.4,43.0,29.82,NW,325,12.0,-999.0,96,-99.99,,,0.63,0,weatherlink.com 1.10,2013-01-12 23:21:00,
2013-01-12 17:36:00,43.7,43.0,29.84,NNW,334,11.0,-999.0,96,-99.99,,,0.69,0,weatherlink.com 1.10,2013-01-12 23:36:00,
2013-01-12 17:51:00,42.8,42.0,29.85,NNW,341,12.0,-999.0,96,-99.99,,,0.73,0,weatherlink.com 1.10,2013-01-12 23:51:00,
2013-01-12 18:06:00,42.2,41.0,29.85,North,349,8.0,-999.0,96,-99.99,,,0.77,0,weatherlink.com 1.10,2013-01-13 00:06:00,
2013-01-12 18:21:00,41.7,41.0,29.85,NNW,342,11.0,-999.0,96,-99.99,,,0.82,0,weatherlink.com 1.10,2013-01-13 00:21:00,
2013-01-12 18:36:00,41.5,41.0,29.85,NNW,336,9.0,-999.0,96,-99.99,,,0.85,0,weatherlink.com 1.10,2013-01-13 00:36:00,
2013-01-12 18:51:00,41.1,40.0,29.88,WNW,294,8.0,-999.0,96,-99.99,,,0.88,0,weatherlink.com 1.10,2013-01-13 00:51:00,
2013-01-12 19:06:00,40.7,40.0,29.85,NNW,344,14.0,-999.0,96,-99.99,,,0.92,0,weatherlink.com 1.10,2013-01-13 01:06:00,
2013-01-12 19:21:00,40.0,39.0,29.81,NNW,338,12.0,-999.0,95,-99.99,,,0.97,0,weatherlink.com 1.10,2013-01-13 01:21:00,
2013-01-12 19:36:00,39.5,39.0,29.82,NNE,13,9.0,-999.0,96,-99.99,,,1.01,0,weatherlink.com 1.10,2013-01-13 01:36:00,
2013-01-12 19:52:00,39.1,38.0,29.85,NW,325,17.0,-999.0,95,-99.99,,,1.07,0,weatherlink.com 1.10,2013-01-13 01:52:00,
2013-01-12 20:07:00,37.6,36.0,29.90,NW,325,14.0,-999.0,95,-99.99,,,1.16,0,weatherlink.com 1.10,2013-01-13 02:07:00,
2013-01-12 20:22:00,37.1,36.0,29.90,NW,313,16.0,-999.0,96,-99.99,,,1.24,0,weatherlink.com 1.10,2013-01-13 02:22:00,
2013-01-12 20:37:00,36.5,36.0,29.92,WNW,302,20.0,-999.0,96,-99.99,,,1.29,0,weatherlink.com 1.10,2013-01-13 02:37:00,
2013-01-12 20:52:00,35.8,35.0,29.91,NW,314,19.0,-999.0,96,-99.99,,,1.29,0,weatherlink.com 1.10,2013-01-13 02:52:00,
2013-01-12 21:07:00,35.4,34.0,29.93,NNW,334,14.0,-999.0,95,-99.99,,,1.29,0,weatherlink.com 1.10,2013-01-13 03:07:00,
2013-01-12 21:22:00,34.8,34.0,29.93,NW,317,17.0,-999.0,95,-99.99,,,1.30,0,weatherlink.com 1.10,2013-01-13 03:22:00,
2013-01-12 21:37:00,34.5,33.0,29.95,NW,306,15.0,-999.0,95,-99.99,,,1.31,0,weatherlink.com 1.10,2013-01-13 03:37:00,
2013-01-12 21:52:00,34.2,33.0,29.95,NNW,344,13.0,-999.0,95,-99.99,,,1.31,0,weatherlink.com 1.10,2013-01-13 03:52:00,
2013-01-12 22:07:00,33.8,32.0,29.95,NW,325,19.0,-999.0,94,-99.99,,,1.31,0,weatherlink.com 1.10,2013-01-13 04:07:00,
2013-01-12 22:22:00,33.8,32.0,29.95,NNW,332,13.0,-999.0,93,-99.99,,,1.31,0,weatherlink.com 1.10,2013-01-13 04:22:00,
2013-01-12 22:37:00,33.8,32.0,29.95,North,350,7.0,-999.0,94,-99.99,,,1.31,0,weatherlink.com 1.10,2013-01-13 04:37:00,
2013-01-12 22:52:00,34.1,32.0,29.96,NNW,329,14.0,-999.0,93,-99.99,,,1.31,0,weatherlink.com 1.10,2013-01-13 04:52:00,
2013-01-12 23:07:00,34.3,33.0,29.95,NNW,346,9.0,-999.0,93,-99.99,,,1.31,0,weatherlink.com 1.10,2013-01-13 05:07:00,
2013-01-12 23:22:00,34.5,33.0,29.94,NNW,337,13.0,-999.0,93,-99.99,,,1.32,0,weatherlink.com 1.10,2013-01-13 05:22:00,
2013-01-12 23:37:00,34.6,33.0,29.94,NW,324,10.0,-999.0,94,-99.99,,,1.32,0,weatherlink.com 1.10,2013-01-13 05:37:00,
2013-01-12 23:52:00,34.6,33.0,29.98,NW,316,11.0,-999.0,93,-99.99,,,1.32,0,weatherlink.com 1.10,2013-01-13 05:52:00,